MST,Max TemperatureF,Mean TemperatureF,Min TemperatureF,Max Dew PointF,MeanDew PointF,Min DewpointF,Max Humidity, Mean Humidity, Min Humidity, Max Sea Level PressureIn, Mean Sea Level PressureIn, Min Sea Level PressureIn, Max VisibilityMiles, Mean VisibilityMiles, Min VisibilityMiles, Max Wind SpeedMPH, Mean Wind SpeedMPH, Max Gust SpeedMPH,PrecipitationIn, CloudCover, Events, WindDirDegrees
2013-12-1,42,35,28,37,31,25,100,93,76,30.23,29.98,29.76,10,8,0,18,2,20,0.07,8,,1
2013-12-2,46,34,23,41,30,19,100,79,62,29.76,29.63,29.46,10,8,0,28,9,36,0.04,7,,255
2013-12-3,24,15,6,21,6,-6,86,61,45,30.04,29.89,29.70,10,10,4,20,8,23,0.00,7,,32
2013-12-4,10,4,-2,-2,-6,-13,85,66,44,30.14,30.09,30.04,10,10,9,14,3,,0.00,0,,97
2013-12-5,8,2,-5,-2,-7,-15,100,77,52,30.17,30.12,30.08,10,10,7,5,0,,0.00,2,,135
2013-12-6,6,0,-5,0,-6,-15,100,80,52,30.16,30.09,30.03,10,9,3,5,1,,0.00,3,,155
2013-12-7,8,0,-9,1,-5,-15,100,77,52,30.03,29.95,29.87,10,8,2,6,1,,0.00,3,,127
2013-12-8,5,-3,-11,3,-9,-18,100,84,59,30.31,30.14,30.03,10,9,2,6,0,,0.00,3,,144
2013-12-9,8,-2,-11,7,-3,-18,100,84,62,30.43,30.37,30.32,10,8,1,4,0,,0.00,7,,145
2013-12-10,17,12,6,10,6,-2,92,81,58,30.37,30.30,30.23,10,10,4,6,0,,0.00,7,,143
2013-12-11,19,8,-2,10,3,-8,100,81,62,30.48,30.43,30.38,10,10,10,6,1,,0.00,1,,119
2013-12-12,19,8,-2,10,3,-8,100,84,63,30.46,30.32,30.17,10,10,8,5,0,,0.00,1,,148
2013-12-13,24,15,6,18,12,1,100,81,59,30.41,30.26,30.16,10,10,8,5,0,,0.00,7,,133
2013-12-14,26,17,8,19,14,3,100,85,69,30.50,30.45,30.41,10,10,7,6,1,,0.00,5,,125
2013-12-15,26,17,8,19,13,5,100,87,69,30.45,30.39,30.33,10,10,5,5,1,,0.00,2,,119
2013-12-16,24,14,3,18,9,-2,100,85,67,30.47,30.42,30.37,10,10,6,5,1,,0.00,0,,139
2013-12-17,24,14,3,16,8,-6,100,85,61,30.50,30.31,30.10,10,10,5,4,1,,0.00,0,,148
2013-12-18,24,15,6,19,13,1,100,86,73,30.10,29.91,29.75,10,9,3,6,0,,0.00,4,,156
2013-12-19,33,20,8,25,15,0,100,76,41,29.98,29.87,29.74,10,8,2,15,3,18,0.00,4,,55
2013-12-20,21,13,5,19,11,1,100,84,63,29.97,29.82,29.62,10,8,2,6,1,,0.00,6,,140
2013-12-21,26,20,15,21,18,14,100,91,74,30.03,29.86,29.64,10,8,2,6,0,,0.00,8,,128
2013-12-22,30,24,19,25,21,18,100,85,64,30.25,30.12,30.01,10,9,5,6,1,,0.03,7,,150
2013-12-23,41,32,24,34,26,21,100,89,53,30.27,30.17,29.96,10,8,1,20,2,37,0.17,8,,346
2013-12-24,37,24,8,25,18,7,100,67,45,30.53,30.39,30.16,10,10,10,25,7,31,0.01,4,,94
2013-12-25,19,10,0,12,5,-6,100,86,62,30.63,30.54,30.47,10,10,10,6,1,,0.00,1,,142
2013-12-26,24,15,6,14,9,3,100,81,54,30.52,30.47,30.41,10,10,8,6,1,,0.00,1,,136
2013-12-27,23,12,1,14,8,-6,100,87,68,30.47,30.33,30.15,10,10,10,5,1,,0.00,0,,128
2013-12-28,28,17,6,19,14,0,100,84,64,30.36,30.24,30.12,10,10,6,7,1,,0.00,5,,130
2013-12-29,23,12,1,18,10,0,100,83,63,30.40,30.31,30.21,10,10,10,5,1,,0.00,4,,145
2013-12-30,28,22,15,25,18,12,100,79,59,30.32,30.24,30.15,10,9,2,5,0,,0.00,6,,127
2013-12-31,30,26,21,30,25,19,100,92,80,30.21,30.12,30.03,10,9,2,8,1,22,0.00,7,,123